Weather in Moe

Australia     38°10′40″S   146°15′39″E
temp.,
°C
wind,
m/s
gust,
m/s
humid.,
%
clouds,
%
prec.,
mm/h
press.,
hPa
HPBL,
m
4 august, wed
wed401:00+7w51598100 6.6 10091572
04:00+7w5149394 7.9 10101299
07:00+8w4137383 0.1 10121412
10:00+10wsw3117134 0.2 10141443
13:00+11w4117874 0.6 10131496
16:00+10w41295100 1.6 10131187
19:00+9w31298100 0.6 10151177
22:00+9w4129782 1.2 10161106
5 august, thu
thu501:00+9w4129797 0.5 10161310
04:00+7w3119764 1.0 1017887
07:00+8w31098100 0.3 1018899
10:00+8wnw2898100 0.5 1019826
13:00+9w3998100 0.4 1018974
16:00+9w31196100 0.9 10191048
19:00+9wnw31197100 0.1 1020878
22:00+9w3109799 0.4 1020928
6 august, fri
fri601:00+9wnw3109587 0.1 1020887
04:00+9wnw3119349 0.2 1020806
07:00+9wnw31181100 0.0 1021847
10:00+11wnw3107599 0.0 1023939
13:00+12wnw4967100 0.1 10221421
16:00+11wnw4970100 0.1 10221090
19:00+10wnw31072100 0.0 1023800
22:00+10wnw31073100 0.0 1024718
7 august, sat
sat701:00+9wnw21082100 0.1 1024629
04:00+9wnw31077100 0.2 1023814
07:00+10wnw31070100 0.0 1024926
10:00+11wnw41067100 0.0 10241181
13:00+12wnw41165100 0.0 10241511
16:00+11w31076100 0.1 10241104
19:00+10w298292 0.1 1027937
22:00+7wnw139949 0.3 1028106
8 august, sun
sun801:00+8wsw1397100 0.1 1029124
04:00+6s11982 0.1 103016
07:00+3s11985 0.0 103210
10:00+9ene11695 0.0 1032486
13:00+13e225076 0.0 10301293
16:00+12e2350100 0.0 1029993
19:00+6e298179 0.0 1031289
22:00+4e2988100 0.0 1031242